Location: ActonStarParty
(42.4766°N, 71.4538°W)
Time: 15:09:32
(UTC-04:00)

Daily predictions for brighter satellites

Satellite Brightness Start Highest point End
(mag) Time Altitude Azimuth Time Altitude Azimuth Time Altitude Azimuth
DELTA 2 R/B (1) 4.4 19:57:23 10° W 20:02:39 42° SSW 20:07:55 10° SE
Helios 1A 3.7 20:01:49 10° SE 20:05:41 35° ENE 20:09:34 10° N
Cosmos 1697 Rocket 3.3 20:00:34 10° SW 20:06:10 64° WNW 20:11:46 10° NNE
USA 267 3.7 20:00:23 10° NE 20:06:52 69° NW 20:13:22 10° WSW
Spot 2 Rocket 3.5 20:06:34 10° SSE 20:11:40 87° E 20:16:47 10° NNW
Milstar 3 4.1 20:06:26 10° WSW 20:13:36 28° S 20:19:14 10° SE
Cosmos 2297 Rocket 4.4 20:09:39 10° NW 20:14:17 26° WSW 20:18:53 10° SSW
OAO 3 Rocket 4.2 20:10:05 10° SW 20:14:21 31° S 20:18:41 10° ESE
Cosmos 1869 3.7 20:10:52 10° SSE 20:14:33 39° E 20:18:15 10° NNE
Resurs 01 Rocket 1.9 20:11:46 10° S 20:16:12 76° WSW 20:20:41 10° NNW
Cosmos 1892 3.3 20:15:35 10° NNW 20:19:20 60° W 20:23:04 10° S
Cosmos 1400 Rocket 3.7 20:17:48 10° NNW 20:21:35 50° W 20:25:23 10° S
Cosmos 2263 Rocket 3.2 20:17:15 10° N 20:22:08 30° NE 20:26:42 11° ESE
GRACE-1 3.8 20:20:55 10° N 20:23:41 89° E 20:26:25 10° S
GRACE-2 3.8 20:21:19 10° N 20:24:05 89° E 20:26:49 10° S
CZ-4B DEB 3.4 20:22:01 10° SE 20:24:47 33° ENE 20:27:35 10° N
YAOGAN 6 4.2 20:22:29 11° ESE 20:24:55 19° ENE 20:27:35 10° NNE
Meteor 1-29 3.6 20:24:13 10° NNE 20:27:27 35° E 20:30:38 10° SSE
Cosmos 2322 Rocket 2.5 20:22:40 10° S 20:27:54 42° ESE 20:33:11 10° NE
H-2A R/B 4.2 20:25:57 10° S 20:29:38 40° W 20:33:19 10° NNW
Envisat 3.1 20:26:38 10° SSE 20:31:36 58° ENE 20:36:36 10° N
Cosmos 1302 Rocket 4.1 20:27:10 10° SSW 20:32:22 81° WNW 20:37:36 10° NNE
Cosmos 220 Rocket 4.2 20:28:09 10° NNW 20:32:34 58° ENE 20:36:43 11° SSE
Cosmos 1315 Rocket 3.2 20:31:07 10° NNW 20:35:13 69° W 20:39:12 10° S
Cosmos 2360 Rocket 3.4 20:34:39 10° SE 20:38:38 20° E 20:42:39 10° NE
Cosmos 1933 4.3 20:35:43 11° SSE 20:38:55 28° E 20:42:24 10° NNE
Cosmos 1980 Rocket 3.0 20:33:33 10° SW 20:39:08 58° WNW 20:44:47 10° NNE
USA 234 3.3 20:35:33 13° SE 20:41:34 84° NE 20:48:09 10° NW
Cosmos 2026 Rocket 4.0 20:36:24 10° N 20:42:39 69° E 20:48:45 10° SSE
Intercosmos 25 Rocket 3.0 20:44:09 10° S 20:47:15 60° E 20:51:06 10° NNE
Cosmos 1825 2.1 20:45:13 10° N 20:49:02 72° E 20:52:20 13° SSE
SL-16 R/B 2.1 20:49:52 10° SSW 20:55:30 71° ESE 21:01:10 10° NNE
Cosmos 397 4.4 20:57:34 10° NNW 21:01:55 71° ENE 21:04:05 26° SE
Cosmos 1862 3.3 20:57:53 10° N 21:01:55 69° E 21:04:33 21° SSE
ATLAS 5 CENTAUR R/B 3.0 20:56:36 10° NNW 21:02:15 43° NE 21:06:11 21° ESE
Cosmos 1634 Rocket 4.4 20:56:26 10° SSW 21:02:41 68° W 21:09:00 10° N
Helios 1B rocket 2.9 20:59:41 10° N 21:03:45 63° WNW 21:07:47 10° SSW
ERS-1 Rocket 3.1 21:02:09 20° SE 21:05:28 58° ENE 21:10:25 10° N
Lacrosse 4 Rocket 1.5 21:01:43 10° NNW 21:06:03 79° WSW 21:08:46 23° SSE
USA 186 4.1 21:04:14 10° SW 21:06:16 19° W 21:08:26 10° NW
Cosmos 1655 Rocket 4.0 21:03:00 10° N 21:09:26 89° E 21:15:37 11° S
Cosmos 1733 Rocket 3.0 21:06:30 10° N 21:11:00 89° WSW 21:14:14 18° S
ERBS 3.4 21:07:59 10° WNW 21:11:14 38° SW 21:12:44 24° S
Cosmos 1939 Rocket 3.2 21:08:26 14° S 21:11:54 63° W 21:15:54 10° NNW
ARGOS 3.8 21:11:28 25° ESE 21:13:50 38° ENE 21:18:45 10° N
Cosmos 1862 Rocket 3.5 21:13:24 10° S 21:17:51 90° W 21:22:22 10° N
SeaSat 1 3.0 21:17:14 27° ESE 21:19:21 43° NE 21:24:01 10° NNW
Meteor 1-26 Rocket 4.5 21:16:14 22° SSE 21:19:37 48° E 21:25:08 10° NNE
USA 229 DEB 4.1 21:16:56 10° S 21:23:03 37° ESE 21:29:16 10° NE
USA 229 4.1 21:17:02 10° S 21:23:08 36° ESE 21:29:21 10° NE
Cosmos 1408 4.0 21:21:00 10° NNW 21:24:25 36° W 21:27:28 12° SSW
Cosmos 1992 Rocket 4.0 21:19:45 10° SSW 21:24:59 84° WNW 21:30:17 10° NNE
Cosmos 1844 Rocket 4.1 21:21:01 10° N 21:25:24 23° NE 21:27:24 19° E
Atlas Centaur 2 3.7 21:23:45 10° SW 21:29:58 29° SSE 21:31:32 27° SSE
Cosmos 2266 Rocket 4.1 21:24:29 10° N 21:30:40 58° E 21:33:36 32° SE
Okean 1-7 4.0 21:31:06 30° E 21:31:06 30° E 21:34:40 10° NNE
Terra 3.5 21:31:11 18° ENE 21:31:44 18° ENE 21:34:57 10° NNE
SL-08 RB Rocket 4.3 21:31:41 36° E 21:32:36 41° ENE 21:36:54 10° N
Abrixas rocket 3.8 21:31:06 10° W 21:34:07 33° NNW 21:35:56 19° NE
MOS 1-B Rocket 4.1 21:32:22 32° SE 21:34:54 55° ENE 21:40:23 10° N
YAOGAN 11 4.0 21:36:20 45° SSE 21:37:36 75° ENE 21:41:57 10° N
Cosmos 1703 Rocket 3.6 21:37:03 48° SE 21:37:50 55° E 21:42:11 10° NNE
CZ-4C R/B 4.4 21:36:42 10° NNW 21:42:01 23° NNE 21:46:59 13° ENE
Cosmos 2221 Rocket 3.8 21:44:07 48° E 21:44:07 48° E 21:48:21 10° NNE
Cosmos 2219 Rocket 4.1 21:46:58 14° ENE 21:46:58 14° ENE 21:48:07 10° ENE
MetOp-A 4.1 21:47:17 35° S 21:49:37 80° WSW 21:55:00 10° NNW
Cosmos 1867 3.5 21:45:10 10° NNW 21:50:39 75° ENE 21:52:05 49° SE
Cosmos 489 Rocket 4.5 21:46:18 10° NNW 21:52:41 83° WSW 21:55:23 37° SSE
H-2A R/B 2.2 21:52:50 47° E 21:53:32 50° ENE 21:58:19 10° N
Meteor 1-14 Rocket 4.1 21:48:13 10° N 21:53:53 82° E 21:55:46 44° SSE
OAO 3 Rocket 4.2 21:52:56 10° WSW 21:56:38 32° SSW 21:56:38 32° SSW
YAOGAN 6 4.4 21:56:56 21° SW 21:58:19 27° W 22:01:27 10° NW
Cosmos 2237 4.2 22:00:10 52° SE 22:01:02 58° ESE 22:06:39 10° NNE
ASTEX 1 4.4 22:03:59 33° ENE 22:03:59 33° ENE 22:08:09 10° NNE
SPOT 5 2.9 22:04:10 52° SSW 22:05:17 72° WSW 22:10:00 10° NNW
Cosmos 968 Rocket 3.6 22:00:27 10° NNW 22:05:38 71° WSW 22:06:49 52° S
Cosmos 2263 Rocket 3.1 22:00:57 10° NW 22:06:09 41° WSW 22:08:25 28° SSW
Meteor 1-25 Rocket 4.1 22:04:09 10° N 22:09:47 81° E 22:10:48 61° SSE
COSMOS 2428 2.9 22:10:12 51° E 22:10:12 51° E 22:15:21 10° NE
Meteor 2-10 Rocket 4.4 22:05:36 13° SSW 22:10:40 55° WNW 22:16:23 10° N
Cosmos 2322 Rocket 4.1 22:07:11 10° WSW 22:12:04 30° NW 22:17:00 10° N
Cosmos 2360 Rocket 2.7 22:16:33 10° SW 22:22:07 59° WNW 22:27:45 10° NNE
H-2A R/B 2.6 22:23:58 51° NNE 22:23:58 51° NNE 22:27:27 10° N
Cosmos 1844 4.0 22:22:31 10° NNW 22:28:04 51° ENE 22:28:20 50° ENE
Meteor 1-20 Rocket 4.1 22:23:53 10° NNW 22:29:27 78° W 22:30:10 67° SSW
Cosmos 2322 4.2 22:25:27 16° SW 22:29:59 60° WNW 22:35:39 10° NNE
S3M 4.3 22:32:12 46° E 22:32:12 46° E 22:37:42 10° NNE
Meteor 2-6 Rocket 4.2 22:39:59 78° ESE 22:40:08 79° E 22:46:07 10° NNE
SPOT 1/Viking Rocket 4.1 22:40:22 47° WSW 22:40:56 49° W 22:46:01 10° NNW
IGS 5A 4.5 22:42:18 42° N 22:42:18 42° N 22:45:09 10° N
Okean 2 Rocket 4.0 22:40:59 10° NNW 22:44:59 46° WNW 22:44:59 46° WNW
ATLAS 5 CENTAUR R/B 3.2 22:41:22 10° NW 22:47:01 40° WSW 22:47:45 39° SW
Cosmos 2333 Rocket 3.2 22:52:13 36° ENE 22:52:13 36° ENE 22:55:49 10° NE
Cosmos 2333 4.1 22:51:47 83° WNW 22:51:49 83° WNW 22:57:38 10° NNE
Cosmos 1782 4.3 22:53:34 35° NNW 22:53:34 35° NNW 22:56:13 10° N
Landsat 7 4.5 22:54:28 50° WNW 22:54:28 50° WNW 22:58:36 10° NNW
SeaSat 1 3.9 22:57:02 27° WSW 22:57:02 27° WSW 23:01:08 10° NW
Cosmos 2237 Rocket 3.6 22:59:46 27° NE 22:59:46 27° NE 23:02:37 10° NE
Cosmos 2278 Rocket 2.7 22:55:02 10° NNW 23:00:07 50° NE 23:00:07 50° NE
Cosmos 1417 Rocket 4.5 23:03:56 72° WSW 23:04:23 76° W 23:10:44 10° N
Cosmos 1745 Rocket 3.9 22:59:19 10° N 23:05:30 77° ENE 23:05:30 77° ENE
Terra 2.7 23:10:04 44° WNW 23:10:04 44° WNW 23:13:45 10° NNW
Cosmos 1844 Rocket 3.1 23:04:12 10° NNW 23:09:04 55° W 23:09:04 55° W
NOSS 3-1 (C) 3.7 23:11:31 57° NE 23:11:31 57° NE 23:16:40 10° NE
Meteor 1-27 Rocket 3.9 23:12:59 68° N 23:12:59 68° N 23:17:51 10° N
USA 229 DEB 4.4 23:07:13 10° WSW 23:13:49 50° NW 23:20:35 10° NNE
USA 229 4.4 23:07:17 10° WSW 23:13:54 50° NW 23:20:40 10° NNE
Meteor 2-11 Rocket 4.5 23:16:06 71° NNE 23:16:06 71° NNE 23:21:32 10° N
Atlas Centaur 2 4.5 23:11:46 10° WSW 23:14:12 20° SW 23:14:12 20° SW
NOSS 3-1 (A) 4.0 23:26:28 47° NE 23:26:28 47° NE 23:31:04 10° NE
Cosmos 2219 Rocket 2.6 23:28:37 58° NNW 23:28:37 58° NNW 23:33:27 10° NNE
CZ-4C R/B 2.8 23:24:36 10° NNW 23:31:44 74° NE 23:32:09 72° E
H-2A R/B 4.0 23:33:27 19° W 23:33:27 19° W 23:36:44 10° NW
Meteor 1-11 Rocket 4.4 23:28:39 10° NNW 23:33:08 49° WNW 23:33:08 49° WNW
Cosmos 2315 Rocket 4.5 23:46:15 53° NE 23:46:15 53° NE 23:51:06 10° NNE
Cosmos 2297 4.5 23:46:15 10° NNW 23:50:39 48° NNE 23:50:39 48° NNE
